Regional Weather Roundup
Issued by NWS

Home | Current Version | Previous Version | Graphics & Text | Print | Product List | Glossary Off
Versions: 1 2 3 4 5 6 7 8 9 10 11 12 13 14 15 16 17 18 19 20 21 22 23 24 25 26 27 28 29 30 31 32 33 34 35 36 37 38 39 40 41 42 43 44 45 46 47 48 49 50

493
ASUS43 KDMX 242301
RWRIA

WEATHER ROUNDUP FOR IOWA
NATIONAL WEATHER SERVICE DES MOINES IA
600 PM CDT MON JUL 24 2017

NOTE: "FAIR" INDICATES FEW OR NO CLOUDS BELOW 12,000 FEET WITH NO
SIGNIFICANT WEATHER AND/OR OBSTRUCTIONS TO VISIBILITY.

* - THESE STATIONS ARE NOT NWS STATIONS...THUS NOT UNDER NWS
QUALITY CONTROL.  THEY ALSO DO NOT REPORT WEATHER SUCH
AS PRECIPITATION OR FOG.

IAZ001>003-012>014-020>022-031>034-043>046-250000-
   NORTHWEST IOWA

CITY           SKY/WX    TMP DP  RH WIND       PRES   REMARKS
CARROLL *      SUNNY     79  66  65 SE8       30.00S HX  81
CHEROKEE *     SUNNY     82  64  54 SE10      29.98S HX  83
DENISON *      SUNNY     81  64  57 SE8G14    29.99F HX  82
ORANGE CITY *  SUNNY     82  64  54 SE9G16    29.96S HX  84
SHELDON *      SUNNY     81  64  57 SE15G22   29.95F HX  82
SIOUX CITY     SUNNY     84  66  54 SE14G21   29.94S HX  86
SPENCER        SUNNY     82  62  50 SE14G20   29.99S HX  83
STORM LAKE *   SUNNY     79  64  61 S10       30.00S HX  81
$$

IAZ055>058-069>071-079>083-090>094-250000-
   SOUTHWEST IOWA

CITY           SKY/WX    TMP DP  RH WIND       PRES   REMARKS
ATLANTIC *     SUNNY     84  64  51 S9        29.98S HX  86
AUDUBON *      SUNNY     82  66  57 E8        30.00S HX  85
CLARINDA *     SUNNY     82  70  65 S6        30.00F HX  86
COUNCIL BLFS * SUNNY     82  68  61 SE13      29.97S HX  85
CRESTON *      SUNNY     84  61  45 S8        30.00F HX  84
HARLAN  *      SUNNY     82  64  54 S10       30.01S HX  84
LAMONI         SUNNY     84  63  49 VRB7      30.00S HX  85
RED OAK *      SUNNY     82  68  61 SE8       29.98S HX  85
SHENANDOAH *     N/A     82  68  61 SE8       29.98S HX  85
$$

IAZ047>049-059>061-072>074-084-250000-
   CENTRAL IOWA

CITY           SKY/WX    TMP DP  RH WIND       PRES   REMARKS
AMES           SUNNY     79  65  62 SE8       30.01S HX  81
ANKENY *       SUNNY     81  64  57 MISG      30.01S HX  82
BOONE *        MOSUNNY   79  64  61 SE8       30.01S HX  81
CHARITON *     SUNNY     84  55  37 SE7G13    30.00S HX  83
DES MOINES     MOSUNNY   82  60  47 E10       29.99F HX  82
GRINNELL*      SUNNY     78  63  60 E8        30.04S HX  80
KNOXVILLE *    SUNNY     82  61  47 SE6G12    29.99S HX  83
MARSHALLTOWN   PTSUNNY   79  64  60 SE10      30.01F HX  81
NEWTON *       SUNNY     79  63  57 E8        30.02S HX  80
PELLA *        SUNNY     83  60  44 E3        30.02S HX  83
$$

IAZ004>006-015-016-023>025-035-036-250000-
   NORTH CENTRAL IOWA

CITY           SKY/WX    TMP DP  RH WIND       PRES   REMARKS
ALGONA *       SUNNY     79  64  61 SE9       30.01S HX  81
CLARION *      SUNNY     77  64  65 SE12      30.02S
ESTHERVILLE    SUNNY     77  63  61 SE10      30.00S
FORT DODGE *   MOSUNNY   81  63  54 SE7       30.02R HX  82
MASON CITY     MOSUNNY   76  62  62 SE10      30.05S
FOREST CITY *    N/A     75  61  60 SE8       30.03S
WEBSTER CITY * MOSUNNY   79  63  57 SE9       30.00S HX  80
IOWA FALLS *     N/A     79  64  61 SE9       30.04S HX  81
$$

IAZ007>011-017>019-026>030-037>042-050>054-066-250000-
   NORTHEAST IOWA

CITY           SKY/WX    TMP DP  RH WIND       PRES   REMARKS
CEDAR RAPIDS   MOSUNNY   75  65  70 E10       30.04S
CHARLES CITY * CLOUDY    73  64  73 SE8G16    30.05S
DECORAH *      CLOUDY    73  61  64 VRB5      30.06R
DUBUQUE        PTSUNNY   73  59  61 SE6       30.07S
MONTICELLO *   PTSUNNY   73  63  68 E6        30.05F
OELWEIN *        N/A    N/A N/A N/A MISG        N/A
WATERLOO       PTSUNNY   74  63  68 E9        30.02S
$$

IAZ064-065-067-068-078-250000-
   EAST CENTRAL IOWA

CITY           SKY/WX    TMP DP  RH WIND       PRES   REMARKS
DAVENPORT      SUNNY     75  62  64 E8        30.08R
IOWA CITY      MOSUNNY   77  64  64 NE10      30.05S
MUSCATINE *    MOSUNNY   79  64  61 E10       30.04S HX  81
QUAD CITIES    PTSUNNY   76  62  62 E10       30.05R
$$

IAZ062-063-075>077-085>089-095>099-250000-
   SOUTHEAST IOWA

CITY           SKY/WX    TMP DP  RH WIND       PRES   REMARKS
BURLINGTON     MOSUNNY   77  67  71 E9        30.02S
FAIRFIELD *    SUNNY     81  64  57 E10       30.01S HX  82
FORT MADISON * MOSUNNY   79  68  69 E9        30.03S HX  81
KEOKUK *       MOSUNNY   81  68  65 NE12      30.01S HX  83
OSKALOOSA *      N/A     82  61  49 SE6       30.02S HX  82
OTTUMWA        SUNNY     83  63  50 E10       30.00F HX  84
WASHINGTON *   MOSUNNY   77  68  73 E12       30.04S
$$

ABBREVIATIONS USED IN REMARKS
   TC - TEMPERATURES IN CELSIUS
  WCI - WIND CHILL INDEX
   HX - HEAT INDEX
  VSB - VISIBILITY
$$





USA.gov is the U.S. government's official web portal to all federal, state and local government web resources and services.